CLASSIFICA

FARM RUN

MUD RUN

NOCETO (PR) 23/06/2018

DIVISIONI:
COMPETITIVA     FOUR RUN COMPETITIVA     FOUR RUN NON COMPETITIVA     NON COMPETITIVA     CLASSIFICA:   ASSOLUTA    M     F    
CATEGORIE:   TUTTE    |   18-24(F)   |   18-24(M)   |   25-29(F)   |   25-29(M)   |   30-34(F)   |   30-34(M)   |   35-39(F)   |   35-39(M)   |   40-44(F)   |   40-44(M)   |   45-49(F)   |   45-49(M)   |   50-99(F)   |   50-99(M)  
ALTRO: Classifica Team 
FILTRO:
  Atleta      Team        Pulisci       Atleti classificati COMPETITIVA: 175  

Cliccare sulle colonne per cambiare ordinamento Pagina:   | 1 | | 2 | | 3 | | 4 |
Pos. M/F Cat. P.Cat. Pett Naz Atleta Squadra Tempo Distacco in tempo Distacco in metri Min/Km braccialetti regione
1130-34(M)1126CAZZAVACCA ALESSANDROTEAM WRI00:58:53 00:10:11 2.075 00:04:54 3 -
2230-34(M)2272DEPEDRI RAFFAELEVERONA FORCE RUN ARMY00:59:18 00:10:36 2.145 00:04:57 3 R
3325-29(M)1275KADIJA RIGERSTEAMINFERNO01:00:00 00:11:18 2.259 00:05:00 3 R
4430-34(M)3155MACCHIAVELLO CLAUDIOTEAMINFERNO01:00:01 00:11:19 2.262 00:05:00 3 R
5518-24(M)1336RICCARDO MORITEAMINFERNO01:01:06 00:12:24 2.435 00:05:06 3 R
6625-29(M)2135DEL PIANO ANDREATEAMINFERNO01:01:14 00:12:32 2.456 00:05:06 3 R
7730-34(M)4113BERTOLASI MARCOWHITE DONKEYS OCR TEAM01:01:58 00:13:16 2.569 00:05:10 3 -
8830-34(M)5124CATELLANI MIRCOWHITE DONKEYS OCR TEAM01:02:13 00:13:31 2.607 00:05:11 3 -
9925-29(M)3331MAFFEI GIACOMOKNIGHT RACE01:03:19 00:14:37 2.770 00:05:17 3 R
101030-34(M)6179SCALI GIORGIOINDIVIDUALE01:04:17 00:15:35 2.908 00:05:21 3 R
111118-24(M)2115BIONDAN MARCOINDIVIDUALE01:05:00 00:16:18 3.009 00:05:25 3 -
121230-34(M)7111BELLODI ANDREAWHITE DONKEYS OCR TEAM01:05:34 00:16:52 3.086 00:05:28 3 -
131335-39(M)1198BONAITA ALEXTEAM VIBRAM01:05:52 00:17:10 3.127 00:05:29 3 -
141440-44(M)1335PELLEREI LUCATEAM WRI01:06:37 00:17:55 3.227 00:05:33 3 -
151530-34(M)8138DODI FRANCESCOWHITE DONKEYS OCR TEAM01:06:38 00:17:56 3.229 00:05:33 3 -
161618-24(M)3150ILLARI VLADYSLAVINDIVIDUALE01:07:01 00:18:19 3.279 00:05:35 3 -
171725-29(M)4144GIANNETTONI LORENZOINDIVIDUALE01:07:11 00:18:29 3.301 00:05:36 3 R
181840-44(M)2112BERTA PAOLOWHITE DONKEYS OCR TEAM01:07:41 00:18:59 3.365 00:05:38 3 -
191918-24(M)4334PELIZZA MATTEOTEAM WRI01:07:51 00:19:09 3.386 00:05:39 3 -
202040-44(M)3202BORACCHIA MATTEOWHITE DONKEYS OCR TEAM01:09:23 00:20:41 3.577 00:05:47 3 R
212130-34(M)9166MOLGORA GABRIELEINDIVIDUALE01:09:48 00:21:06 3.627 00:05:49 3 R
222235-39(M)2147GORASSO MASSIMOINDIVIDUALE01:10:09 00:21:27 3.669 00:05:51 3 -
232330-34(M)10241PESCE FEDERICOINDIVIDUALE01:10:14 00:21:32 3.679 00:05:51 3 R
242430-34(M)11143GIACONE MASSIMOTEAM WRI01:10:31 00:21:49 3.712 00:05:53 3 -
252525-29(M)5197BICCHI ENRICOJONNY RACING01:10:33 00:21:51 3.716 00:05:53 3 -
262625-29(M)6110BATTAGLIA DINOFARMRUN01:10:48 00:22:06 3.745 00:05:54 3 -
272730-34(M)12152LOPES MASSIMOOCR TEAM ITALY LWT01:11:04 00:22:22 3.776 00:05:55 3 -
282840-44(M)4339SIRGHI DORINANIS MUDDERS01:11:11 00:22:29 3.790 00:05:56 3 -
292930-34(M)13342VILLANI MARCOTEAM WRI01:11:25 00:22:43 3.817 00:05:57 3 R
303045-49(M)1128CINI ROLANDOWELLFIT RUN MUDDERS01:12:46 00:24:04 3.968 00:06:04 3 -
313135-39(M)3173PETROCCHI CLAUDIOINDIVIDUALE01:12:53 00:24:11 3.981 00:06:04 3 -
323245-49(M)2127CECCOTTI DANIELEINDIVIDUALE01:13:08 00:24:26 4.009 00:06:06 3 R
333330-34(M)14107BARALDI DAVIDEWHITE DONKEYS OCR TEAM01:14:24 00:25:42 4.145 00:06:12 3 R
343435-39(M)4268BRONDI MARCOVERONA FORCE RUN ARMY01:14:45 00:26:03 4.181 00:06:14 3 -
353525-29(M)7125CAVICCHIOLO LUCA GIUSEPPEANIMALS OCR TEAM01:15:08 00:26:26 4.221 00:06:16 3 -
363640-44(M)5160MASALA ENRICOANIMALS OCR TEAM01:15:11 00:26:29 4.227 00:06:16 3 R
373735-39(M)5340SPERANDIO MATTEOVERONA FORCE RUN ARMY01:15:23 00:26:41 4.247 00:06:17 3 -
383840-44(M)6262ZANRE ALBERTOREAL STEEL TEAM01:15:43 00:27:01 4.281 00:06:19 3 -
393935-39(M)6183TIBERI ANTONIOINDIVIDUALE01:16:22 00:27:40 4.347 00:06:22 3 -
404035-39(M)7201BONESI SAMUELWHITE DONKEYS OCR TEAM01:16:26 00:27:44 4.354 00:06:22 3 -
414145-49(M)3238PAPALINI FABIOINDIVIDUALE01:16:50 00:28:08 4.393 00:06:24 3 -
424240-44(M)7120CARLINI SIMONEFARM RUN01:17:42 00:29:00 4.478 00:06:29 3 -
434330-34(M)15148GUERNIERI VALERIOWHITE DONKEYS OCR TEAM01:18:19 00:29:37 4.537 00:06:32 3 -
444445-49(M)4225GIUSTIZIA ANGELOINDIVIDUALE01:18:43 00:30:01 4.575 00:06:34 3 -
454530-34(M)16114BIANCHI ETTOREINDIVIDUALE01:19:50 00:31:08 4.679 00:06:39 3 -
464625-29(M)8206CARDIA VINCENZOINDIVIDUALE01:20:02 00:31:20 4.698 00:06:40 3 R
474735-39(M)8337SAVAZZI FEDERICOWHITE DONKEYS OCR TEAM01:20:52 00:32:10 4.773 00:06:44 3 R
484830-34(M)17249ROVESTI MICHAELWHITE DONKEYS OCR TEAM01:20:58 00:32:16 4.782 00:06:45 3 R
494925-29(M)9214DOZIO LUCAINDIVIDUALE01:21:01 00:32:19 4.786 00:06:45 3 -
505030-34(M)18185TROPEA MASSIMILIANODAS TEAM OCR01:21:17 00:32:35 4.810 00:06:46 3 -
515130-34(M)19208CARNOVALE FRANCESCOREAL STEEL TEAM01:21:26 00:32:44 4.823 00:06:47 3 -
525245-49(M)5330LEONI MAUROINFERNO TEAM01:22:39 00:33:57 4.929 00:06:53 3 -
535335-39(M)9133DE PRA JACOPOANIMALS OCR TEAM01:23:08 00:34:26 4.970 00:06:56 3 -
545435-39(M)10228LUCA DAVIDEDAS TEAM OCR01:23:13 00:34:31 4.977 00:06:56 3 -
555540-44(M)8220GIANELLI GABRIELEINDIVIDUALE01:23:43 00:35:01 5.019 00:06:59 3 -
565640-44(M)9233MORITA TATSUYAINDIVIDUALE01:23:46 00:35:04 5.023 00:06:59 3 -
575725-29(M)10165MIGNOGNA ALESSANDROINDIVIDUALE01:23:48 00:35:06 5.026 00:06:59 3 -
585825-29(M)11171PALVARINI ANDREAANIMALS OCR TEAM01:23:52 00:35:10 5.031 00:06:59 3 -
595935-39(M)11232LONGO OSCARINDIVIDUALE01:24:07 00:35:25 5.052 00:07:01 3 -
606030-34(M)20163MEDEA ALBERTOINDIVIDUALE01:24:44 00:36:02 5.103 00:07:04 3 R
616145-49(M)6174RAVIZZA MARCO ALFREDOINDIVIDUALE01:25:25 00:36:43 5.158 00:07:07 3 -
626230-34(M)21177ROCCHICCHIOLI FEDERICOLION TEAM01:25:30 00:36:48 5.164 00:07:08 3 R
636330-34(M)22189ZANONI MATTEOWHITE DONKEYS OCR TEAM01:25:36 00:36:54 5.172 00:07:08 3 -
646430-34(M)23212CIVA LORENZOWHITE DONKEYS TEAM01:25:47 00:37:05 5.187 00:07:09 3 -
656540-44(M)10119CAPRIOLI LUIGINOINDIVIDUALE01:25:52 00:37:10 5.194 00:07:09 3 R
666625-29(M)12236OTTAVIANI LUCACROSSFIT BELLARIA01:26:53 00:38:11 5.273 00:07:14 3 -
676745-49(M)7213DE ROSA DOMENICORACE MANIAC TEAM01:27:28 00:38:46 5.318 00:07:17 3 -
686830-34(M)24344ZANOTTI GILBERTOINDIVIDUALE01:27:48 00:39:06 5.343 00:07:19 3 -
696930-34(M)25175RENZETTI BERNARDOINDIVIDUALE01:27:53 00:39:11 5.350 00:07:19 3 -
70118-24(F)1182TANGEL ALLEGRAINDIVIDUALE01:28:41 00:39:59 5.410 00:07:23 3 -
717035-39(M)12239PELI DAVIDEINDIVIDUALE01:28:45 00:40:03 5.415 00:07:24 3 -
727140-44(M)11162MASSIMO GLAUCOINDIVIDUALE01:29:20 00:40:38 5.458 00:07:27 3 -
737245-49(M)8159MARINI ALESSANDROANIMALS OCR TEAM01:29:24 00:40:42 5.463 00:07:27 3 -
747325-29(M)13122CASIRAGHI LUCAWHITE DONKEYS OCR TEAM01:29:36 00:40:54 5.477 00:07:28 3 R
757430-34(M)26190ZAPPA STEFANOWHITE DONKEYS OCR TEAM01:29:37 00:40:55 5.478 00:07:28 3 -
767535-39(M)13176ROBUSTELLI NICOLAINDIVIDUALE01:30:33 00:41:51 5.546 00:07:33 3 -
777625-29(M)14101ACCORSI KEVININDIVIDUALE01:31:29 00:42:47 5.611 00:07:37 3 R
787745-49(M)9276LEONE ALESSIOINDIVIDUALE01:32:01 00:43:19 5.648 00:07:40 3 -
797835-39(M)14168MORRA CARMINEINDIVIDUALE01:32:21 00:43:39 5.671 00:07:42 3 -
80218-24(F)2191ZENGA CAROLTEAMINFERNO01:32:54 00:44:12 5.709 00:07:45 3 R
817930-34(M)27200BONESI DAVIDEWHITE DONKEYS OCR TEAM01:34:20 00:45:38 5.804 00:07:52 3 -
828025-29(M)15167MORGANTE GIUSEPPEFARMRUN01:34:38 00:45:56 5.824 00:07:53 3 -
838125-29(M)16169MOSCATELLI MICHELEFARMRUN01:34:42 00:46:00 5.828 00:07:54 3 -
848250-99(M)1158MARABINI ROBERTOCUS INSUBRIA EOLO01:35:18 00:46:36 5.867 00:07:57 3 -
858345-49(M)10199BONCOMPAGNI ALESSIOINDIVIDUALE01:35:27 00:46:45 5.877 00:07:57 3 R
868430-34(M)28188ZANETTI PAOLOINDIVIDUALE01:35:34 00:46:52 5.884 00:07:58 3 -
878550-99(M)2245QUADRACCIA ALESSANDROINDIVIDUALE01:37:57 00:49:15 6.033 00:08:10 3 -
888640-44(M)12229MAZZA MARCOREAL STEEL TEAM01:38:03 00:49:21 6.039 00:08:10 3 -
898725-29(M)17332MARTIGNONI MARCOVERONA FORCE RUN ARMY01:39:34 00:50:52 6.130 00:08:18 3 -
908825-29(M)18246QUAGLIATA ANTONIOSANFELICEOCR-PALA300501:40:18 00:51:36 6.173 00:08:22 3 -
918918-24(M)5154LUSINI LORENZOI LUPI DEL CHIANTI01:40:34 00:51:52 6.188 00:08:23 3 -
929050-99(M)3117CAMPATELLI ROBERTOINDIVIDUALE01:40:50 00:52:08 6.204 00:08:24 3 -
93330-34(F)1153LOVATO DANIELAWHITE DONKEYS OCR TEAM01:42:03 00:53:21 6.273 00:08:30 3 R
949135-39(M)15142GALLESI LUCAINDIVIDUALE01:42:18 00:53:36 6.287 00:08:32 3 -
959230-34(M)29178RONCHI LEANDROINDIVIDUALE01:47:30 00:58:48 6.563 00:08:58 3 -
969340-44(M)13146GIRAUDO FEDERICODAS TEAM OCR01:49:15 01:00:33 6.650 00:09:06 3 -
979435-39(M)16219GHINZELLI DARIOWHITE DONKEYS OCR TEAM01:50:46 01:02:04 6.724 00:09:14 3 R
989550-99(M)4196ALVAREZ JOSÈ LUISSANFELICEOCR-PALA300501:51:19 01:02:37 6.750 00:09:17 3 -
999640-44(M)14121CASCHILI MARCOOCR TEAM IMSA02:11:27 01:22:45 7.554 00:10:57 3 -
100425-29(F)1109BARTOLI SARANINJA CAVE02:14:56 01:26:14 7.668 00:11:15 3 -
1019745-49(M)11261ZAMPETTI DAVIDEINDIVIDUALE02:32:07 01:43:25 8.158 00:12:41 3 -
1029825-29(M)19102ANDREANI SIMONEINDIVIDUALE01:24:19 00:35:37 5.068 00:07:02 2 R
1039940-44(M)15184TINI EMANUELEINDIVIDUALE01:24:23 00:35:41 5.074 00:07:02 2 R
10410040-44(M)16132DADDOVERI MASSIMOLION TEAM01:25:31 00:36:49 5.166 00:07:08 2 R
10510125-29(M)20263ZECCA MICHELEREAL STEEL TEAM01:26:04 00:37:22 5.209 00:07:10 2 -
10610240-44(M)17194AIRÒ NICOLAAROOSTICINI01:26:37 00:37:55 5.253 00:07:13 2 -
10710335-39(M)17186VALTORTA MATTEOINDIVIDUALE01:26:46 00:38:04 5.264 00:07:14 2 R
10810425-29(M)21224GIUNTINI TOMMASOINDIVIDUALE01:27:25 00:38:43 5.314 00:07:17 2 -
10910530-34(M)30223GIUDICI ROBERTOINDIVIDUALE01:30:41 00:41:59 5.555 00:07:33 2 -
110540-44(F)1240PERRONE IDA ANNAWHITE DONKEYS OCR TEAM01:32:16 00:43:34 5.666 00:07:41 2 R
11110635-39(M)18134DE SIMONE FILIPPOINDIVIDUALE01:35:20 00:46:38 5.869 00:07:57 2 -
11210735-39(M)19230MAZZEO STEFANOSANFELICEOCR-PALA300501:36:36 00:47:54 5.950 00:08:03 2 R
113640-44(F)2215FERRARI SABRINAREAL STEEL TEAM01:39:12 00:50:30 6.108 00:08:16 2 R
11410850-99(M)5157MANCA BRUNODAS TEAM OCR01:40:14 00:51:32 6.169 00:08:21 2 -
11510940-44(M)18260VINCENZO SORRENTINORACE MANIAC TEAM01:40:18 00:51:36 6.173 00:08:22 2 R
116718-24(F)3333MAZZUCCO ELISABETTATEAM WRI01:41:10 00:52:28 6.223 00:08:26 2 -
11711025-29(M)22237PALAZZO ELISEOINDIVIDUALE01:41:16 00:52:34 6.229 00:08:26 2 -
118835-39(F)1266BATTIATI ADELEMAXIMUS CROSS RUN01:41:52 00:53:10 6.263 00:08:29 2 -
11911130-34(M)31267BRESCINI GABRIELEKNIGHT RACE01:42:23 00:53:41 6.292 00:08:32 2 R
12011245-49(M)12104TAGLIABUE DAVIDEOCR TEAM ITALY LWT01:42:47 00:54:05 6.314 00:08:34 2 R
12111345-49(M)13222GIUDICI ALESSANDROPERSONAL TRAINING STUDIO RE01:43:47 00:55:05 6.369 00:08:39 2 -
12211445-49(M)14105ARCIERI VITOINDIVIDUALE01:45:21 00:56:39 6.452 00:08:47 2 -
12311535-39(M)20247ROMANO ALESSANDROINDIVIDUALE01:45:30 00:56:48 6.460 00:08:48 2 -
124945-49(F)1192ZITO VIVIANAINDIVIDUALE01:46:33 00:57:51 6.515 00:08:53 2 -
12511645-49(M)15273GEMELLI ALESSANDROENERGY MEDIGLIA GYM TEAM01:47:04 00:58:22 6.541 00:08:55 2 -
12611740-44(M)19338SCIRISCIOLI NICOLAKNIGHT RACE01:50:57 01:02:15 6.732 00:09:15 2 -
12711830-34(M)32161MASELLI LUCAINDIVIDUALE01:53:39 01:04:57 6.857 00:09:28 2 -
12811945-49(M)16203BOSSI FABIOINDIVIDUALE01:59:18 01:10:36 7.101 00:09:57 2 R
12912045-49(M)17254SICCARDI ANDREAKARMA SPARTAN02:25:28 01:36:46 7.982 00:12:07 2 R
1301040-44(F)3139DOMINICI BARBARAFARMRUN02:56:49 02:08:07 8.694 00:14:44 2 -
13112130-34(M)33242PIZZO SEBASTIANO ANTONIOSIRACUSA SPARTAN CREW02:58:37 02:09:55 8.728 00:14:53 2 -
13212230-34(M)34243POLLEDRI ENRICOINDIVIDUALE01:22:51 00:34:09 4.946 00:06:54 1 -
13312325-29(M)23244PRESAZZI FEDERICOOCR TEAM ITALY LWT01:26:23 00:37:41 5.234 00:07:12 1 -
13412430-34(M)35205CALDERARI GIACOMOEGO VILLAGE01:29:46 00:41:04 5.489 00:07:29 1 -
1351130-34(F)2269CAPOVILLA ROBERTAVERONA FORCE RUN ARMY01:35:36 00:46:54 5.887 00:07:58 1 R
13612535-39(M)21103ANDREOTTI GIACOMOJEK01:36:03 00:47:21 5.915 00:08:00 1 -
13712630-34(M)36250RUSCONI ANDREAWHITE DONKEYS OCR TEAM01:36:28 00:47:46 5.941 00:08:02 1 -
13812735-39(M)22278CAPITELLI GABRIELEREAL STEEL TEAM01:38:53 00:50:11 6.090 00:08:14 1 -
13912850-99(M)6151LIGORIO LUIGITEAM ANIMALS OCR01:40:42 00:52:00 6.196 00:08:24 1 R
14012950-99(M)7252SATTANINO CARLOINDIVIDUALE01:49:56 01:01:14 6.684 00:09:10 1 R
14113045-49(M)18195ALETTI SIMONE MESONINDIVIDUALE01:54:23 01:05:41 6.890 00:09:32 1 R
14213135-39(M)23131D’ALONZO NICOLAINDIVIDUALE02:00:56 01:12:14 7.167 00:10:05 1 -
14313240-44(M)20211CIPOLLA FRANCESCOBELLI MA SCARSI02:02:26 01:13:44 7.226 00:10:12 1 -
14413325-29(M)24204BRAMBILLA ANDREAINDIVIDUALE02:03:28 01:14:46 7.266 00:10:17 1 -
1451250-99(F)1277MONDINI ROSSELLAINDIVIDUALE02:09:44 01:21:02 7.495 00:10:49 1 -
1461318-24(F)4226GUALDI ALICEKARMA SPARTAN02:25:28 01:36:46 7.982 00:12:07 1 -
1471430-34(F)3255STRANO DANIELAWHITE DONKEYS OCR TEAM02:31:21 01:42:39 8.138 00:12:37 1 -
1481518-24(F)5341TRENTA ANNAKNIGHT RACE02:35:21 01:46:39 8.238 00:12:57 1 R
14913450-99(M)8265ALBANO FRANCESCOANIS MUDDERS02:47:45 01:59:03 8.516 00:13:59 1 -
1501625-29(F)2235OSSOLA ELISARACE MANIAC TEAM03:01:38 02:12:56 8.782 00:15:08 1 -
1511730-34(F)4108BARDELLINI PAOLATEAMINFERNO03:29:46 02:41:04 9.214 00:17:29 1 -
15213530-34(M)37210CERATO ELIAINDIVIDUALE00:48:42 00:00:00 0 00:04:04 0 -
15313625-29(M)25231MEDONE EMANUELEINDIVIDUALE01:21:55 00:33:13 4.865 00:06:50 0 R
15413740-44(M)21257VALENTI ANDREAREAL STEEL TEAM01:29:23 00:40:41 5.461 00:07:27 0 -
15513818-24(M)6234OPPOLITI ALBERTOJONNY RACING01:30:17 00:41:35 5.527 00:07:31 0 -
1561845-49(F)2279DELLAPINA MANUELAREAL STEEL TEAM01:38:54 00:50:12 6.091 00:08:15 0 -
15713945-49(M)19221GIAVOLUCCI GIUSEPPEOCR TEAM ITALY LWT01:41:23 00:52:41 6.235 00:08:27 0 -
15814045-49(M)20270CORNETTI EMANUELEINDIVIDUALE01:41:54 00:53:12 6.264 00:08:30 0 -
15914150-99(M)9145GIOVANNINI PAOLOTEAM ANIMALS OCR01:42:07 00:53:25 6.277 00:08:31 0 -
16014245-49(M)21248ROSSI SIMONASANFELICEOCR-PALA300501:48:27 00:59:45 6.611 00:09:02 0 -
1611950-99(F)2256TREBBI LAURASANFELICEOCR-PALA300501:51:18 01:02:36 6.749 00:09:17 0 -
16214330-34(M)38172PASOTTI LUCAINDIVIDUALE01:51:46 01:03:04 6.771 00:09:19 0 R
1632018-24(F)6193ABBIATI ALESSANDRAI BRESA'01:52:38 01:03:56 6.811 00:09:23 0 -
16414425-29(M)26258VASSALLI STEFANOINDIVIDUALE01:53:37 01:04:55 6.856 00:09:28 0 R
1652118-24(F)7129COLABIANCHI ELENAMAXIMUS CROSS RUN02:00:17 01:11:35 7.141 00:10:01 0 -
16614530-34(M)39216FREGNAN GABRIELEBELLI MA SCARSI02:03:01 01:14:19 7.249 00:10:15 0 -
1672235-39(F)2136DI BATTISTA LUCIAINDIVIDUALE02:04:31 01:15:49 7.306 00:10:23 0 -
16814645-49(M)22118CAPONERI GIANLEONARDOINDIVIDUALE02:04:47 01:16:05 7.316 00:10:24 0 -
16914730-34(M)40181SOZZI GIANPIETROINDIVIDUALE02:17:04 01:28:22 7.736 00:11:25 0 -
1702340-44(F)4207CARMECI STEFANIAINDIVIDUALE02:34:01 01:45:19 8.205 00:12:50 0 -
1712445-49(F)3209CASORIA MICHELAINDIVIDUALE02:34:07 01:45:25 8.208 00:12:51 0 R
1722525-29(F)3259VIGONE VERONICAINDIVIDUALE02:34:25 01:45:43 8.215 00:12:52 0 -
17314835-39(M)24253SELLERI STEFANOSANFELICEOCR-PALA300502:34:49 01:46:07 8.225 00:12:54 0 -
1742640-44(F)5217GAGLIARDI LUANARACE MANIAC TEAM02:51:03 02:02:21 8.583 00:14:15 0 R
1752725-29(F)4227LITSOVA DENITSALEGIOVII03:06:56 02:18:14 8.873 00:15:35 0 -
Righe per pagina::     TUTTE    |   30   |   50   |   100   Pagina:   | 1 | | 2 | | 3 | | 4 |